This demonstration page uses our WeatherBlox Daily Observations layout. Learn more.

Left ArrowRight Arrow

Hourly Observations for March 8, 2021

Temp ( °F °C ) Dew Point ( °F °C ) Humidity (%) Winds ( mph kmh ) Pressure ( in mb ) Visibility ( mi km ) Precip ( " mm )
12:53 am 00:53 Cloudy 34 1.1 26 -3.3 73 73 SSW 7 11 30.09 1019 10 16.0934 0 0
1:53 am 01:53 Cloudy 36 2.2 26 -3.3 67 67 SW 9 15 30.09 1019 10 16.0934 0 0
2:53 am 02:53 Cloudy 37 2.8 25 -3.9 62 62 SW 9 15 30.09 1019 10 16.0934 0 0
3:53 am 03:53 Cloudy 35 1.7 25 -3.9 67 67 SW 5 7 30.09 1019 10 16.0934 0 0
4:53 am 04:53 Cloudy 33 0.6 25 -3.9 72 72 SW 7 11 30.1 1019 10 16.0934 0 0
5:53 am 05:53 Cloudy 32 0 25 -3.9 75 75 SSW 7 11 30.11 1020 10 16.0934 0 0
6:53 am 06:53 Cloudy 30 -1.1 25 -3.9 82 82 SW 9 15 30.13 1020 10 16.0934 0 0
7:53 am 07:53 Sunny 32 0 24 -4.4 73 73 SW 8 13 30.11 1020 10 16.0934 0 0
8:53 am 08:53 Sunny 37 2.8 26 -3.3 65 65 W 8 13 30.11 1020 10 16.0934 0 0
9:53 am 09:53 Sunny 42 5.6 22 -5.6 45 45 W 10 17 30.1 1019 10 16.0934 0 0
10:53 am 10:53 Sunny 43 6.1 20 -6.7 40 40 W 7 11 30.07 1018 10 16.0934 0 0
11:53 am 11:53 Sunny 44 6.7 18 -7.8 35 35 W 5 7 30.05 1018 10 16.0934 0 0
12:53 pm 12:53 Mostly Cloudy 46 7.8 16 -8.9 30 30 NNE 3 6 30.02 1017 10 16.0934 0 0
1:53 pm 13:53 Mostly Cloudy 46 7.8 16 -8.9 30 30 ENE 5 7 29.99 1016 10 16.0934 0 0
2:53 pm 14:53 Cloudy 46 7.8 16 -8.9 30 30 NE 6 9 29.97 1015 10 16.0934 0 0
3:53 pm 15:53 Cloudy 45 7.2 21 -6.1 39 39 NNE 12 19 29.97 1015 10 16.0934 0 0
4:53 pm 16:53 Cloudy 42 5.6 22 -5.6 45 45 NE 10 17 29.97 1015 10 16.0934 0 0
5:53 pm 17:53 Cloudy 40 4.4 21 -6.1 47 47 ENE 12 19 29.99 1016 10 16.0934 0 0
6:53 pm 18:53 Cloudy with Light Snow 34 1.1 31 -0.6 89 89 N 10 17 30.04 1017 4 6.43736 0.001 0.001
7:44 pm 19:44 Cloudy with Light Snow 33 0.6 31 -0.6 92 92 NNE 5 7 30.05 1018 1.75 2.816345 0.001 0.001
7:53 pm 19:53 Cloudy with Light Snow 33 0.6 31 -0.6 92 92 NNE 5 7 30.03 1017 1.25 2.011675 0.01 0.254
8:00 pm 20:00 Mostly Cloudy with Light Snow 33 0.6 31 -0.6 92 92 NE 3 6 30.05 1018 0.75 1.207005 0.001 0.001
8:14 pm 20:14 Cloudy with Light Snow 32 0 31 -0.6 96 96 ESE 5 7 30.05 1018 1.25 2.011675 0.01 0.254
8:23 pm 20:23 Cloudy with Light Snow 32 0 31 -0.6 96 96 ESE 7 11 30.05 1018 1.5 2.41401 0.02 0.508
8:31 pm 20:31 Cloudy with Light Snow 32 0 31 -0.6 96 96 SE 7 11 30.05 1018 2 3.21868 0.02 0.508
8:45 pm 20:45 Cloudy with Light Snow 32 0 31 -0.6 96 96 ESE 7 11 30.04 1017 5 8.0467 0.02 0.508
8:53 pm 20:53 Cloudy 32 0 31 -0.6 96 96 ESE 8 13 30 1016 9 14.48406 0.02 0.508
9:53 pm 21:53 Cloudy 32 0 30 -1.1 92 92 ESE 7 11 29.98 1015 10 16.0934 0 0
10:53 pm 22:53 Cloudy 32 0 30 -1.1 92 92 Calm 29.98 1015 10 16.0934 0 0
11:53 pm 23:53 Cloudy 31 -0.6 29 -1.7 92 92 WNW 6 9 29.97 1015 10 16.0934 0 0

Powered by AerisWeather